| time (UTC) | temp F | wind direction | speed MPH | gust MPH | rain 1hr in | rain 24hr in | rain mn in | humidity % | barometer mb |
| 20260510175029 | 87 | 85 | 0.0 | 7.0 | 0.00 | 0.06 | 0.00 | 69 | 1015.1 |
| 20260510174529 | 87 | 187 | 0.0 | 6.0 | 0.00 | 0.06 | 0.00 | 68 | 1015.1 |
| 20260510174027 | 87 | 71 | 0.0 | 5.0 | 0.00 | 0.06 | 0.00 | 71 | 1015.1 |
| 20260510173527 | 86 | 40 | 0.0 | 6.0 | 0.00 | 0.06 | 0.00 | 71 | 1015.1 |
| 20260510173026 | 87 | 125 | 2.0 | 6.0 | 0.00 | 0.06 | 0.00 | 70 | 1015.2 |
| 20260510172525 | 87 | 132 | 1.0 | 6.0 | 0.00 | 0.06 | 0.00 | 70 | 1015.3 |
| 20260510172028 | 87 | 103 | 0.0 | 4.0 | 0.00 | 0.06 | 0.00 | 70 | 1015.3 |
| 20260510171525 | 86 | 88 | 0.0 | 7.0 | 0.00 | 0.06 | 0.00 | 70 | 1015.4 |
| 20260510171023 | 86 | 95 | 0.0 | 7.0 | 0.00 | 0.06 | 0.00 | 71 | 1015.6 |
| 20260510170524 | 86 | 119 | 0.0 | 5.0 | 0.00 | 0.06 | 0.00 | 71 | 1015.5 |
| 20260510170023 | 86 | 173 | 1.0 | 6.0 | 0.00 | 0.06 | 0.00 | 69 | 1015.5 |
| 20260510165522 | 86 | 180 | 1.0 | 7.0 | 0.00 | 0.06 | 0.00 | 71 | 1015.6 |
| 20260510165026 | 86 | 113 | 0.0 | 6.0 | 0.00 | 0.06 | 0.00 | 72 | 1015.6 |
| 20260510164520 | 85 | 110 | 0.0 | 7.0 | 0.00 | 0.06 | 0.00 | 72 | 1015.6 |
| 20260510164019 | 85 | 134 | 0.0 | 7.0 | 0.00 | 0.06 | 0.00 | 73 | 1015.7 |
| 20260510163519 | 85 | 169 | 1.0 | 7.0 | 0.00 | 0.06 | 0.00 | 72 | 1015.7 |
| 20260510163018 | 85 | 67 | 0.0 | 7.0 | 0.00 | 0.06 | 0.00 | 74 | 1015.9 |
| 20260510162516 | 85 | 94 | 0.0 | 7.0 | 0.00 | 0.06 | 0.00 | 75 | 1015.8 |
| 20260510162015 | 84 | 42 | 0.0 | 5.0 | 0.00 | 0.06 | 0.00 | 77 | 1015.9 |
| 20260510161515 | 83 | 128 | 0.0 | 5.0 | 0.00 | 0.06 | 0.00 | 77 | 1015.8 |
| 20260510161015 | 83 | 20 | 0.0 | 5.0 | 0.00 | 0.06 | 0.00 | 77 | 1016.0 |
| 20260510160511 | 83 | 17 | 0.0 | 5.0 | 0.00 | 0.06 | 0.00 | 78 | 1016.1 |
| 20260510160011 | 82 | 59 | 0.0 | 4.0 | 0.00 | 0.06 | 0.00 | 78 | 1016.2 |
| 20260510155515 | 82 | 78 | 0.0 | 4.0 | 0.00 | 0.06 | 0.00 | 80 | 1016.2 |
| 20260510155012 | 82 | 43 | 0.0 | 8.0 | 0.00 | 0.06 | 0.00 | 79 | 1016.2 |
| 20260510154510 | 82 | 115 | 0.0 | 8.0 | 0.00 | 0.06 | 0.00 | 79 | 1016.3 |
| 20260510154011 | 82 | 87 | 0.0 | 8.0 | 0.00 | 0.06 | 0.00 | 79 | 1016.5 |
| 20260510153508 | 82 | 61 | 0.0 | 5.0 | 0.00 | 0.06 | 0.00 | 80 | 1016.5 |
| 20260510153022 | 82 | 119 | 0.0 | 5.0 | 0.00 | 0.06 | 0.00 | 79 | 1016.5 |
| 20260510152507 | 82 | 41 | 1.0 | 5.0 | 0.00 | 0.06 | 0.00 | 81 | 1016.6 |
| 20260510152008 | 81 | 29 | 1.0 | 6.0 | 0.00 | 0.06 | 0.00 | 80 | 1016.5 |
| 20260510151507 | 81 | 69 | 1.0 | 6.0 | 0.00 | 0.06 | 0.00 | 80 | 1016.5 |
| 20260510151007 | 82 | 63 | 1.0 | 7.0 | 0.00 | 0.06 | 0.00 | 79 | 1016.5 |
| 20260510150507 | 81 | 37 | 1.0 | 7.0 | 0.00 | 0.06 | 0.00 | 81 | 1016.3 |
| 20260510150005 | 81 | 75 | 0.0 | 4.0 | 0.00 | 0.06 | 0.00 | 80 | 1016.3 |
| 20260510145505 | 81 | 120 | 0.0 | 7.0 | 0.00 | 0.06 | 0.00 | 81 | 1016.4 |
| 20260510145003 | 81 | 103 | 0.0 | 9.0 | 0.00 | 0.06 | 0.00 | 81 | 1016.3 |
| 20260510144507 | 80 | 42 | 1.0 | 9.0 | 0.00 | 0.06 | 0.00 | 82 | 1016.2 |
| 20260510144003 | 80 | 25 | 0.0 | 3.0 | 0.00 | 0.06 | 0.00 | 83 | 1016.3 |
| 20260510143502 | 80 | 70 | 0.0 | 4.0 | 0.00 | 0.06 | 0.00 | 83 | 1016.2 |
| 20260510143002 | 80 | 44 | 1.0 | 6.0 | 0.00 | 0.06 | 0.00 | 83 | 1016.3 |
| 20260510142503 | 81 | 88 | 1.0 | 9.0 | 0.00 | 0.06 | 0.00 | 83 | 1016.2 |
| 20260510142104 | 80 | 51 | 1.0 | 9.0 | 0.00 | 0.06 | 0.00 | 83 | 1016.2 |
| 20260510141600 | 80 | 62 | 1.0 | 6.0 | 0.00 | 0.06 | 0.00 | 83 | 1016.3 |
| 20260510141059 | 80 | 57 | 1.0 | 6.0 | 0.00 | 0.06 | 0.00 | 84 | 1016.3 |
| 20260510140557 | 80 | 80 | 1.0 | 6.0 | 0.00 | 0.06 | 0.00 | 85 | 1016.2 |
| 20260510140057 | 79 | 41 | 0.0 | 3.0 | 0.00 | 0.06 | 0.00 | 86 | 1016.1 |
| 20260510135555 | 79 | 56 | 0.0 | 4.0 | 0.00 | 0.06 | 0.00 | 87 | 1016.1 |
| 20260510135058 | 78 | 185 | 0.0 | 4.0 | 0.00 | 0.06 | 0.00 | 88 | 1016.0 |
| 20260510134554 | 78 | 79 | 0.0 | 6.0 | 0.00 | 0.06 | 0.00 | 88 | 1015.9 |
| 20260510134051 | 77 | 107 | 0.0 | 6.0 | 0.00 | 0.06 | 0.00 | 88 | 1015.9 |
| 20260510133551 | 77 | 89 | 0.0 | 2.0 | 0.00 | 0.06 | 0.00 | 89 | 1015.8 |
| 20260510133051 | 77 | 95 | 0.0 | 0.0 | 0.00 | 0.06 | 0.00 | 90 | 1015.7 |
| 20260510132549 | 76 | 74 | 0.0 | 0.0 | 0.00 | 0.06 | 0.00 | 90 | 1015.7 |
| 20260510132048 | 76 | 74 | 0.0 | 0.0 | 0.00 | 0.06 | 0.00 | 91 | 1015.7 |
| 20260510131547 | 76 | 75 | 0.0 | 0.0 | 0.00 | 0.06 | 0.00 | 91 | 1015.6 |
| 20260510131049 | 76 | 57 | 0.0 | 0.0 | 0.00 | 0.06 | 0.00 | 91 | 1015.4 |
| 20260510130546 | 76 | 57 | 0.0 | 0.0 | 0.00 | 0.06 | 0.00 | 91 | 1015.5 |
| 20260510130046 | 76 | 62 | 0.0 | 0.0 | 0.00 | 0.06 | 0.00 | 91 | 1015.4 |
| 20260510125545 | 76 | 69 | 0.0 | 2.0 | 0.00 | 0.06 | 0.00 | 91 | 1015.4 |
| 20260510125048 | 76 | 40 | 0.0 | 2.0 | 0.00 | 0.06 | 0.00 | 91 | 1015.1 |
| 20260510124546 | 75 | 54 | 0.0 | 0.0 | 0.00 | 0.06 | 0.00 | 91 | 1015.0 |
| 20260510124044 | 75 | 54 | 0.0 | 0.0 | 0.00 | 0.06 | 0.00 | 92 | 1015.1 |
| 20260510123544 | 75 | 51 | 0.0 | 0.0 | 0.00 | 0.06 | 0.00 | 92 | 1015.0 |
| 20260510123043 | 75 | 44 | 0.0 | 0.0 | 0.00 | 0.06 | 0.00 | 92 | 1014.8 |
| 20260510122544 | 75 | 42 | 0.0 | 0.0 | 0.00 | 0.06 | 0.00 | 92 | 1014.8 |
| 20260510122040 | 75 | 161 | 0.0 | 0.0 | 0.00 | 0.06 | 0.00 | 92 | 1014.6 |
| 20260510121540 | 75 | 165 | 0.0 | 0.0 | 0.00 | 0.06 | 0.00 | 92 | 1014.5 |
| 20260510121043 | 75 | 167 | 0.0 | 0.0 | 0.00 | 0.06 | 0.00 | 92 | 1014.4 |
| 20260510120539 | 75 | 167 | 0.0 | 0.0 | 0.00 | 0.06 | 0.00 | 92 | 1014.4 |
| 20260510120038 | 75 | 167 | 0.0 | 1.0 | 0.00 | 0.06 | 0.00 | 92 | 1014.2 |
| 20260510115539 | 75 | 167 | 0.0 | 1.0 | 0.00 | 0.06 | 0.00 | 92 | 1014.0 |
| 20260510115036 | 75 | 165 | 0.0 | 0.0 | 0.00 | 0.06 | 0.00 | 92 | 1013.9 |
| 20260510114536 | 75 | 165 | 0.0 | 5.0 | 0.00 | 0.06 | 0.00 | 92 | 1013.7 |
| 20260510114035 | 75 | 164 | 0.0 | 5.0 | 0.00 | 0.06 | 0.00 | 92 | 1013.6 |
| 20260510113533 | 75 | 146 | 0.0 | 1.0 | 0.00 | 0.06 | 0.00 | 92 | 1013.5 |
| 20260510113033 | 75 | 138 | 0.0 | 1.0 | 0.00 | 0.06 | 0.00 | 92 | 1013.4 |
| 20260510112532 | 75 | 167 | 0.0 | 0.0 | 0.00 | 0.06 | 0.00 | 92 | 1013.5 |
| 20260510112033 | 75 | 182 | 0.0 | 4.0 | 0.00 | 0.06 | 0.00 | 92 | 1013.4 |
| 20260510111533 | 75 | 170 | 0.0 | 4.0 | 0.00 | 0.06 | 0.00 | 92 | 1013.3 |
| 20260510111031 | 75 | 167 | 0.0 | 2.0 | 0.00 | 0.06 | 0.00 | 92 | 1013.1 |
| 20260510110529 | 75 | 180 | 0.0 | 3.0 | 0.00 | 0.06 | 0.00 | 92 | 1013.1 |
| 20260510110034 | 75 | 148 | 0.0 | 3.0 | 0.00 | 0.06 | 0.00 | 92 | 1012.9 |
| 20260510105529 | 75 | 161 | 0.0 | 7.0 | 0.00 | 0.06 | 0.00 | 92 | 1012.9 |
| 20260510105031 | 75 | 195 | 1.0 | 7.0 | 0.00 | 0.06 | 0.00 | 92 | 1012.7 |
| 20260510104529 | 75 | 151 | 0.0 | 4.0 | 0.00 | 0.06 | 0.00 | 92 | 1012.7 |
| 20260510104027 | 75 | 182 | 0.0 | 2.0 | 0.00 | 0.06 | 0.00 | 92 | 1012.8 |
| 20260510103527 | 75 | 180 | 0.0 | 0.0 | 0.00 | 0.06 | 0.00 | 92 | 1012.6 |
| 20260510103027 | 74 | 180 | 0.0 | 2.0 | 0.00 | 0.06 | 0.00 | 92 | 1012.7 |
| 20260510102526 | 74 | 163 | 0.0 | 2.0 | 0.00 | 0.06 | 0.00 | 92 | 1012.7 |
| 20260510102026 | 74 | 170 | 0.0 | 6.0 | 0.00 | 0.06 | 0.00 | 92 | 1012.7 |
| 20260510101525 | 74 | 173 | 1.0 | 7.0 | 0.00 | 0.06 | 0.00 | 92 | 1012.6 |
| 20260510101025 | 74 | 184 | 0.0 | 2.0 | 0.00 | 0.06 | 0.00 | 92 | 1012.6 |
| 20260510100524 | 74 | 182 | 0.0 | 3.0 | 0.00 | 0.06 | 0.00 | 92 | 1012.7 |
| 20260510100024 | 74 | 126 | 0.0 | 6.0 | 0.00 | 0.06 | 0.00 | 92 | 1012.6 |
| 20260510095526 | 74 | 187 | 0.0 | 5.0 | 0.00 | 0.06 | 0.00 | 92 | 1012.6 |
| 20260510095023 | 74 | 180 | 0.0 | 5.0 | 0.00 | 0.06 | 0.00 | 92 | 1012.5 |
| 20260510094523 | 74 | 159 | 0.0 | 4.0 | 0.00 | 0.06 | 0.00 | 92 | 1012.5 |
| 20260510094022 | 74 | 180 | 0.0 | 5.0 | 0.00 | 0.06 | 0.00 | 93 | 1012.5 |
| 20260510093523 | 74 | 166 | 0.0 | 5.0 | 0.00 | 0.06 | 0.00 | 93 | 1012.6 |
| 20260510093023 | 74 | 204 | 0.0 | 7.0 | 0.00 | 0.06 | 0.00 | 93 | 1012.6 |
| 20260510092525 | 74 | 178 | 1.0 | 4.0 | 0.00 | 0.06 | 0.00 | 93 | 1012.4 |
| 20260510092022 | 74 | 171 | 0.0 | 7.0 | 0.00 | 0.06 | 0.00 | 93 | 1012.6 |
| 20260510091526 | 74 | 163 | 1.0 | 7.0 | 0.00 | 0.06 | 0.00 | 93 | 1012.6 |
| 20260510091022 | 74 | 186 | 2.0 | 7.0 | 0.00 | 0.06 | 0.00 | 93 | 1012.5 |
| 20260510090521 | 74 | 178 | 3.0 | 7.0 | 0.00 | 0.06 | 0.00 | 94 | 1012.5 |
| 20260510090023 | 74 | 170 | 0.0 | 5.0 | 0.00 | 0.06 | 0.00 | 93 | 1012.5 |
| 20260510085520 | 74 | 179 | 1.0 | 4.0 | 0.00 | 0.06 | 0.00 | 93 | 1012.5 |
| 20260510085018 | 74 | 180 | 0.0 | 4.0 | 0.00 | 0.06 | 0.00 | 93 | 1012.5 |
| 20260510084540 | 74 | 161 | 0.0 | 5.0 | 0.00 | 0.06 | 0.00 | 92 | 1012.6 |
| 20260510084018 | 74 | 192 | 0.0 | 2.0 | 0.00 | 0.06 | 0.00 | 92 | 1012.7 |
| 20260510083517 | 74 | 173 | 0.0 | 0.0 | 0.00 | 0.06 | 0.00 | 92 | 1012.6 |
| 20260510083017 | 74 | 157 | 0.0 | 0.0 | 0.00 | 0.06 | 0.00 | 92 | 1012.6 |
| 20260510082516 | 74 | 156 | 0.0 | 0.0 | 0.00 | 0.06 | 0.00 | 92 | 1012.7 |
| 20260510082016 | 74 | 164 | 0.0 | 0.0 | 0.00 | 0.06 | 0.00 | 92 | 1012.7 |
| 20260510081528 | 74 | 167 | 0.0 | 0.0 | 0.00 | 0.06 | 0.00 | 91 | 1012.7 |
| 20260510081015 | 74 | 167 | 0.0 | 0.0 | 0.00 | 0.06 | 0.00 | 91 | 1012.8 |
| 20260510080515 | 74 | 167 | 0.0 | 0.0 | 0.00 | 0.06 | 0.00 | 91 | 1012.8 |
| 20260510080014 | 74 | 167 | 0.0 | 0.0 | 0.00 | 0.06 | 0.00 | 91 | 1012.8 |
| 20260510075513 | 74 | 167 | 0.0 | 0.0 | 0.00 | 0.06 | 0.00 | 91 | 1012.8 |
| 20260510075017 | 74 | 167 | 0.0 | 0.0 | 0.00 | 0.06 | 0.00 | 91 | 1012.6 |
| 20260510074513 | 74 | 167 | 0.0 | 0.0 | 0.00 | 0.06 | 0.00 | 91 | 1012.8 |
| 20260510074012 | 75 | 149 | 0.0 | 2.0 | 0.00 | 0.06 | 0.00 | 91 | 1012.7 |
| 20260510073612 | 75 | 185 | 0.0 | 3.0 | 0.00 | 0.06 | 0.00 | 91 | 1012.7 |
| 20260510073011 | 75 | 159 | 0.0 | 3.0 | 0.00 | 0.06 | 0.00 | 91 | 1012.6 |
| 20260510072511 | 75 | 167 | 0.0 | 0.0 | 0.00 | 0.06 | 0.00 | 91 | 1012.7 |
| 20260510072010 | 75 | 179 | 0.0 | 3.0 | 0.00 | 0.06 | 0.00 | 91 | 1012.8 |
| 20260510071510 | 75 | 169 | 0.0 | 4.0 | 0.00 | 0.06 | 0.00 | 91 | 1012.8 |
| 20260510071009 | 75 | 165 | 0.0 | 1.0 | 0.00 | 0.06 | 0.00 | 91 | 1012.8 |
| 20260510070510 | 75 | 155 | 0.0 | 2.0 | 0.00 | 0.06 | 0.00 | 91 | 1012.9 |
| 20260510070009 | 75 | 165 | 0.0 | 5.0 | 0.00 | 0.06 | 0.00 | 91 | 1012.8 |
| 20260510065515 | 75 | 169 | 1.0 | 5.0 | 0.00 | 0.06 | 0.00 | 91 | 1012.9 |
| 20260510065011 | 75 | 175 | 1.0 | 5.0 | 0.00 | 0.06 | 0.00 | 91 | 1012.8 |
| 20260510064506 | 75 | 170 | 0.0 | 6.0 | 0.00 | 0.06 | 0.00 | 91 | 1012.8 |
| 20260510064005 | 75 | 178 | 1.0 | 6.0 | 0.00 | 0.06 | 0.00 | 91 | 1012.8 |
| 20260510063505 | 76 | 174 | 0.0 | 4.0 | 0.00 | 0.06 | 0.00 | 91 | 1012.9 |
| 20260510063004 | 76 | 165 | 2.0 | 6.0 | 0.00 | 0.06 | 0.00 | 90 | 1012.9 |
| 20260510062504 | 76 | 188 | 3.0 | 7.0 | 0.00 | 0.06 | 0.00 | 90 | 1012.8 |
| 20260510062003 | 76 | 178 | 1.0 | 7.0 | 0.00 | 0.06 | 0.00 | 90 | 1012.8 |
| 20260510061508 | 76 | 148 | 2.0 | 7.0 | 0.00 | 0.06 | 0.00 | 90 | 1012.9 |
| 20260510061003 | 76 | 198 | 2.0 | 5.0 | 0.00 | 0.06 | 0.00 | 89 | 1012.9 |
| 20260510060502 | 76 | 151 | 3.0 | 7.0 | 0.00 | 0.06 | 0.00 | 89 | 1012.9 |
| 20260510060004 | 76 | 180 | 3.0 | 7.0 | 0.00 | 0.06 | 0.00 | 89 | 1012.9 |
| 20260510055600 | 76 | 194 | 2.0 | 9.0 | 0.00 | 0.06 | 0.00 | 89 | 1013.0 |
| 20260510055100 | 76 | 161 | 2.0 | 9.0 | 0.00 | 0.06 | 0.00 | 89 | 1013.0 |
| 20260510054603 | 76 | 140 | 2.0 | 9.0 | 0.00 | 0.06 | 0.00 | 89 | 1013.1 |
| 20260510054100 | 76 | 124 | 4.0 | 11.0 | 0.00 | 0.06 | 0.00 | 89 | 1013.1 |
| 20260510053600 | 76 | 196 | 5.0 | 12.0 | 0.00 | 0.06 | 0.00 | 89 | 1012.9 |
| 20260510053100 | 76 | 155 | 2.0 | 8.0 | 0.00 | 0.06 | 0.00 | 90 | 1013.0 |
| 20260510052557 | 76 | 162 | 2.0 | 7.0 | 0.00 | 0.06 | 0.00 | 90 | 1013.1 |
| 20260510052057 | 76 | 173 | 2.0 | 11.0 | 0.00 | 0.06 | 0.00 | 90 | 1013.2 |
| 20260510051557 | 76 | 155 | 2.0 | 11.0 | 0.00 | 0.06 | 0.00 | 90 | 1013.2 |
| 20260510051056 | 76 | 146 | 3.0 | 10.0 | 0.00 | 0.06 | 0.00 | 89 | 1013.1 |
| 20260510050555 | 76 | 159 | 1.0 | 8.0 | 0.00 | 0.06 | 0.00 | 89 | 1013.2 |
| 20260510050055 | 76 | 150 | 2.0 | 6.0 | 0.00 | 0.06 | 0.00 | 89 | 1013.2 |
| 20260510045554 | 76 | 44 | 1.0 | 4.0 | 0.00 | 0.06 | 0.06 | 89 | 1013.2 |
| 20260510045055 | 76 | 96 | 1.0 | 7.0 | 0.00 | 0.06 | 0.06 | 89 | 1013.3 |
| 20260510044558 | 76 | 108 | 1.0 | 9.0 | 0.00 | 0.06 | 0.06 | 88 | 1013.2 |
| 20260510044056 | 76 | 145 | 2.0 | 11.0 | 0.00 | 0.06 | 0.06 | 88 | 1013.1 |
| 20260510043554 | 76 | 169 | 4.0 | 11.0 | 0.00 | 0.06 | 0.06 | 87 | 1013.2 |
| 20260510043105 | 76 | 127 | 3.0 | 9.0 | 0.00 | 0.06 | 0.06 | 87 | 1013.5 |
| 20260510042553 | 76 | 155 | 2.0 | 9.0 | 0.00 | 0.06 | 0.06 | 87 | 1013.5 |
| 20260510042057 | 76 | 151 | 2.0 | 7.0 | 0.00 | 0.06 | 0.06 | 87 | 1013.5 |
| 20260510041553 | 76 | 132 | 1.0 | 7.0 | 0.00 | 0.06 | 0.06 | 87 | 1013.6 |
| 20260510041054 | 77 | 147 | 1.0 | 8.0 | 0.00 | 0.06 | 0.06 | 87 | 1013.6 |
| 20260510040553 | 77 | 137 | 2.0 | 8.0 | 0.00 | 0.06 | 0.06 | 88 | 1013.5 |
| 20260510040104 | 77 | 117 | 1.0 | 8.0 | 0.00 | 0.06 | 0.06 | 88 | 1013.3 |
| 20260510035551 | 77 | 164 | 2.0 | 9.0 | 0.00 | 0.06 | 0.06 | 88 | 1013.2 |
| 20260510035051 | 77 | 141 | 3.0 | 9.0 | 0.00 | 0.06 | 0.06 | 88 | 1013.0 |
| 20260510034559 | 77 | 141 | 2.0 | 7.0 | 0.00 | 0.06 | 0.06 | 88 | 1013.3 |
| 20260510034052 | 77 | 74 | 1.0 | 9.0 | 0.00 | 0.06 | 0.06 | 88 | 1013.5 |
| 20260510033553 | 77 | 86 | 1.0 | 9.0 | 0.00 | 0.06 | 0.06 | 88 | 1013.5 |
| 20260510033051 | 77 | 134 | 2.0 | 8.0 | 0.00 | 0.06 | 0.06 | 87 | 1013.7 |
| 20260510032550 | 78 | 113 | 1.0 | 13.0 | 0.00 | 0.06 | 0.06 | 87 | 1013.6 |
| 20260510032051 | 78 | 44 | 2.0 | 11.0 | 0.00 | 0.06 | 0.06 | 87 | 1013.4 |
| 20260510031601 | 78 | 126 | 1.0 | 15.0 | 0.00 | 0.06 | 0.06 | 86 | 1013.6 |
| 20260510031051 | 79 | 141 | 3.0 | 15.0 | 0.00 | 0.06 | 0.06 | 85 | 1013.6 |
| 20260510030553 | 79 | 161 | 3.0 | 14.0 | 0.00 | 0.06 | 0.06 | 84 | 1013.6 |
| 20260510030049 | 79 | 229 | 2.0 | 12.0 | 0.00 | 0.06 | 0.06 | 80 | 1013.4 |
| 20260510025548 | 79 | 81 | 2.0 | 8.0 | 0.00 | 0.06 | 0.06 | 75 | 1013.3 |
| 20260510025048 | 78 | 142 | 1.0 | 8.0 | 0.00 | 0.06 | 0.06 | 75 | 1013.2 |
| 20260510024546 | 78 | 144 | 2.0 | 8.0 | 0.00 | 0.06 | 0.06 | 75 | 1012.9 |
| 20260510024045 | 78 | 92 | 2.0 | 7.0 | 0.00 | 0.06 | 0.06 | 76 | 1012.8 |
| 20260510023545 | 78 | 170 | 3.0 | 7.0 | 0.00 | 0.06 | 0.06 | 76 | 1012.6 |
| 20260510023047 | 77 | 130 | 2.0 | 7.0 | 0.00 | 0.06 | 0.06 | 77 | 1012.3 |
| 20260510022545 | 77 | 163 | 0.0 | 3.0 | 0.00 | 0.06 | 0.06 | 79 | 1012.4 |
| 20260510022045 | 77 | 147 | 0.0 | 3.0 | 0.00 | 0.06 | 0.06 | 81 | 1012.1 |
| 20260510021545 | 77 | 136 | 0.0 | 2.0 | 0.00 | 0.06 | 0.06 | 82 | 1012.0 |
| 20260510021044 | 77 | 140 | 0.0 | 2.0 | 0.00 | 0.06 | 0.06 | 83 | 1011.9 |
| 20260510020544 | 77 | 150 | 0.0 | 2.0 | 0.00 | 0.06 | 0.06 | 84 | 1011.8 |
| 20260510020044 | 77 | 105 | 0.0 | 1.0 | 0.00 | 0.06 | 0.06 | 84 | 1011.7 |
| 20260510015543 | 77 | 103 | 0.0 | 1.0 | 0.00 | 0.06 | 0.06 | 84 | 1011.3 |
| 20260510015042 | 77 | 103 | 0.0 | 1.0 | 0.00 | 0.06 | 0.06 | 83 | 1011.2 |
| 20260510014644 | 77 | 103 | 0.0 | 1.0 | 0.00 | 0.06 | 0.06 | 82 | 1011.0 |
| 20260510014042 | 77 | 101 | 0.0 | 1.0 | 0.00 | 0.06 | 0.06 | 82 | 1010.9 |
| 20260510013545 | 77 | 101 | 0.0 | 1.0 | 0.00 | 0.06 | 0.06 | 82 | 1010.9 |
| 20260510013050 | 77 | 101 | 0.0 | 0.0 | 0.00 | 0.06 | 0.06 | 81 | 1010.9 |
| 20260510012545 | 77 | 101 | 0.0 | 2.0 | 0.00 | 0.06 | 0.06 | 81 | 1010.7 |
| 20260510012042 | 77 | 101 | 0.0 | 3.0 | 0.00 | 0.06 | 0.06 | 81 | 1010.5 |
| 20260510011543 | 77 | 99 | 0.0 | 3.0 | 0.00 | 0.06 | 0.06 | 81 | 1010.7 |
| 20260510011043 | 77 | 76 | 0.0 | 3.0 | 0.00 | 0.06 | 0.06 | 81 | 1010.6 |
| 20260510010541 | 77 | 108 | 0.0 | 2.0 | 0.00 | 0.06 | 0.06 | 80 | 1010.6 |
| 20260510010042 | 77 | 129 | 0.0 | 1.0 | 0.00 | 0.06 | 0.06 | 80 | 1010.2 |
| 20260510005541 | 78 | 129 | 0.0 | 0.0 | 0.00 | 0.06 | 0.06 | 79 | 1010.0 |
| 20260510005041 | 78 | 129 | 0.0 | 1.0 | 0.00 | 0.06 | 0.06 | 79 | 1010.1 |
| 20260510004540 | 78 | 129 | 0.0 | 2.0 | 0.00 | 0.06 | 0.06 | 79 | 1010.0 |
| 20260510004040 | 78 | 129 | 0.0 | 3.0 | 0.00 | 0.06 | 0.06 | 80 | 1010.0 |
| 20260510003540 | 78 | 128 | 2.0 | 3.0 | 0.00 | 0.06 | 0.06 | 78 | 1010.1 |
| 20260510003040 | 79 | 121 | 1.0 | 2.0 | 0.00 | 0.06 | 0.06 | 77 | 1010.1 |
| 20260510002542 | 79 | 193 | 0.0 | 4.0 | 0.00 | 0.06 | 0.06 | 76 | 1010.0 |
| 20260510002039 | 79 | 208 | 1.0 | 6.0 | 0.01 | 0.06 | 0.06 | 76 | 1010.2 |
| 20260510001540 | 80 | 237 | 1.0 | 6.0 | 0.01 | 0.06 | 0.06 | 79 | 1010.2 |
| 20260510001039 | 80 | 330 | 1.0 | 3.0 | 0.01 | 0.06 | 0.06 | 83 | 1010.1 |
| 20260510000539 | 80 | 151 | 1.0 | 4.0 | 0.02 | 0.06 | 0.06 | 83 | 1010.0 |
| 20260510000039 | 81 | 141 | 0.0 | 3.0 | 0.02 | 0.06 | 0.06 | 84 | 1010.1 |
| 20260509235538 | 81 | 137 | 1.0 | 3.0 | 0.06 | 0.06 | 0.06 | 82 | 1010.1 |
| 20260509235039 | 81 | 134 | 0.0 | 3.0 | 0.06 | 0.06 | 0.06 | 83 | 1009.8 |
| 20260509234540 | 81 | 157 | 0.0 | 3.0 | 0.06 | 0.06 | 0.06 | 82 | 1009.5 |
| 20260509234041 | 81 | 116 | 0.0 | 2.0 | 0.06 | 0.06 | 0.06 | 80 | 1009.8 |
| 20260509233538 | 82 | 115 | 0.0 | 3.0 | 0.06 | 0.06 | 0.06 | 79 | 1009.7 |
| 20260509233037 | 82 | 80 | 0.0 | 4.0 | 0.06 | 0.06 | 0.06 | 78 | 1009.6 |
| 20260509232537 | 83 | 104 | 0.0 | 3.0 | 0.06 | 0.06 | 0.06 | 78 | 1009.6 |
| 20260509232037 | 84 | 115 | 0.0 | 2.0 | 0.05 | 0.05 | 0.05 | 79 | 1009.6 |
| 20260509231537 | 85 | 115 | 0.0 | 2.0 | 0.05 | 0.05 | 0.05 | 76 | 1009.7 |
| 20260509231037 | 86 | 110 | 0.0 | 2.0 | 0.05 | 0.05 | 0.05 | 74 | 1009.7 |
| 20260509230536 | 88 | 109 | 0.0 | 2.0 | 0.04 | 0.04 | 0.04 | 71 | 1009.8 |
| 20260509230040 | 89 | 28 | 0.0 | 0.0 | 0.04 | 0.04 | 0.04 | 66 | 1009.8 |
| 20260509225536 | 89 | 28 | 0.0 | 1.0 | 0.00 | 0.00 | 0.00 | 64 | 1009.5 |
| 20260509225036 | 89 | 28 | 0.0 | 2.0 | 0.00 | 0.00 | 0.00 | 63 | 1009.5 |
| 20260509224538 | 89 | 27 | 0.0 | 2.0 | 0.00 | 0.00 | 0.00 | 63 | 1009.5 |
| 20260509224035 | 89 | 23 | 0.0 | 2.0 | 0.00 | 0.00 | 0.00 | 63 | 1009.5 |
| 20260509223535 | 89 | 23 | 0.0 | 2.0 | 0.00 | 0.00 | 0.00 | 62 | 1009.5 |
| 20260509223035 | 89 | 23 | 0.0 | 3.0 | 0.00 | 0.00 | 0.00 | 62 | 1009.4 |
| 20260509222535 | 89 | 98 | 1.0 | 3.0 | 0.00 | 0.00 | 0.00 | 63 | 1009.4 |
| 20260509222036 | 89 | 99 | 1.0 | 3.0 | 0.00 | 0.00 | 0.00 | 63 | 1009.4 |
| 20260509221534 | 89 | 136 | 1.0 | 6.0 | 0.00 | 0.00 | 0.00 | 63 | 1009.3 |
| 20260509221034 | 90 | 153 | 2.0 | 6.0 | 0.00 | 0.00 | 0.00 | 62 | 1009.3 |
| 20260509220534 | 90 | 93 | 0.0 | 3.0 | 0.00 | 0.00 | 0.00 | 63 | 1009.4 |
| 20260509220038 | 90 | 92 | 0.0 | 5.0 | 0.00 | 0.00 | 0.00 | 63 | 1009.2 |
| 20260509215533 | 90 | 158 | 0.0 | 5.0 | 0.00 | 0.00 | 0.00 | 62 | 1009.3 |
| 20260509215033 | 90 | 28 | 2.0 | 4.0 | 0.00 | 0.00 | 0.00 | 62 | 1009.2 |
| 20260509214534 | 90 | 105 | 1.0 | 4.0 | 0.00 | 0.00 | 0.00 | 63 | 1009.2 |
| 20260509214033 | 90 | 166 | 1.0 | 6.0 | 0.00 | 0.00 | 0.00 | 62 | 1009.2 |
| 20260509213530 | 89 | 130 | 1.0 | 6.0 | 0.00 | 0.00 | 0.00 | 63 | 1009.2 |
| 20260509213030 | 89 | 89 | 1.0 | 5.0 | 0.00 | 0.00 | 0.00 | 64 | 1009.2 |
| 20260509212528 | 89 | 148 | 2.0 | 6.0 | 0.00 | 0.00 | 0.00 | 63 | 1009.3 |
| 20260509212032 | 89 | 100 | 2.0 | 6.0 | 0.00 | 0.00 | 0.00 | 63 | 1009.5 |
| 20260509211528 | 89 | 71 | 1.0 | 4.0 | 0.00 | 0.00 | 0.00 | 64 | 1009.4 |
| 20260509211030 | 89 | 121 | 1.0 | 6.0 | 0.00 | 0.00 | 0.00 | 65 | 1009.5 |
| 20260509210526 | 89 | 171 | 2.0 | 6.0 | 0.00 | 0.00 | 0.00 | 65 | 1009.6 |
| 20260509210029 | 88 | 342 | 0.0 | 3.0 | 0.00 | 0.00 | 0.00 | 64 | 1009.7 |
| 20260509205525 | 89 | 346 | 0.0 | 5.0 | 0.00 | 0.00 | 0.00 | 65 | 1009.8 |
| 20260509205023 | 89 | 319 | 1.0 | 6.0 | 0.00 | 0.00 | 0.00 | 64 | 1009.8 |
| 20260509204523 | 89 | 340 | 2.0 | 6.0 | 0.00 | 0.00 | 0.00 | 64 | 1009.9 |
| 20260509204023 | 89 | 329 | 0.0 | 3.0 | 0.00 | 0.00 | 0.00 | 64 | 1009.8 |
| 20260509203521 | 89 | 324 | 0.0 | 6.0 | 0.00 | 0.00 | 0.00 | 66 | 1009.9 |
| 20260509203021 | 88 | 284 | 2.0 | 6.0 | 0.00 | 0.00 | 0.00 | 66 | 1009.9 |
| 20260509202520 | 88 | 321 | 2.0 | 6.0 | 0.00 | 0.00 | 0.00 | 65 | 1010.0 |
| 20260509202021 | 88 | 76 | 2.0 | 6.0 | 0.00 | 0.00 | 0.00 | 64 | 1010.0 |
| 20260509201518 | 88 | 177 | 1.0 | 3.0 | 0.00 | 0.00 | 0.00 | 67 | 1010.0 |
| 20260509201017 | 88 | 22 | 0.0 | 6.0 | 0.00 | 0.00 | 0.00 | 67 | 1010.1 |
| 20260509200517 | 87 | 344 | 3.0 | 8.0 | 0.00 | 0.00 | 0.00 | 66 | 1010.0 |
| 20260509200017 | 88 | 42 | 2.0 | 8.0 | 0.00 | 0.03 | 0.00 | 65 | 1010.1 |
| 20260509195520 | 88 | 13 | 2.0 | 8.0 | 0.00 | 0.03 | 0.00 | 66 | 1010.1 |
| 20260509195014 | 88 | 338 | 1.0 | 5.0 | 0.00 | 0.03 | 0.00 | 68 | 1010.2 |
| 20260509194521 | 88 | 24 | 1.0 | 4.0 | 0.00 | 0.03 | 0.00 | 68 | 1010.3 |
| 20260509194014 | 87 | 46 | 1.0 | 4.0 | 0.00 | 0.03 | 0.00 | 66 | 1010.2 |
| 20260509193519 | 87 | 192 | 1.0 | 3.0 | 0.00 | 0.03 | 0.00 | 67 | 1010.3 |
| 20260509193013 | 87 | 344 | 0.0 | 3.0 | 0.00 | 0.03 | 0.00 | 70 | 1010.3 |
| 20260509192510 | 87 | 287 | 0.0 | 3.0 | 0.00 | 0.03 | 0.00 | 69 | 1010.5 |
| 20260509192013 | 86 | 321 | 0.0 | 5.0 | 0.00 | 0.03 | 0.00 | 68 | 1010.5 |
| 20260509191510 | 86 | 283 | 1.0 | 5.0 | 0.00 | 0.03 | 0.00 | 69 | 1010.5 |
| 20260509191008 | 86 | 333 | 0.0 | 5.0 | 0.00 | 0.03 | 0.00 | 69 | 1010.5 |
| 20260509190509 | 86 | 333 | 2.0 | 5.0 | 0.00 | 0.03 | 0.00 | 68 | 1010.7 |
| 20260509190011 | 86 | 350 | 0.0 | 4.0 | 0.00 | 0.03 | 0.00 | 71 | 1010.6 |
| 20260509185506 | 86 | 342 | 1.0 | 4.0 | 0.00 | 0.03 | 0.00 | 70 | 1010.8 |
| 20260509185007 | 86 | 187 | 0.0 | 5.0 | 0.00 | 0.03 | 0.00 | 71 | 1010.9 |
| 20260509184504 | 86 | 188 | 0.0 | 5.0 | 0.00 | 0.03 | 0.00 | 71 | 1010.9 |
| 20260509184003 | 85 | 162 | 0.0 | 0.0 | 0.00 | 0.03 | 0.00 | 71 | 1010.8 |
| 20260509183502 | 85 | 286 | 0.0 | 3.0 | 0.00 | 0.03 | 0.00 | 72 | 1011.0 |
| 20260509183002 | 85 | 284 | 0.0 | 3.0 | 0.00 | 0.03 | 0.00 | 72 | 1011.1 |
| 20260509182502 | 85 | 178 | 1.0 | 5.0 | 0.00 | 0.03 | 0.00 | 71 | 1011.1 |
| 20260509182001 | 85 | 194 | 0.0 | 6.0 | 0.00 | 0.03 | 0.00 | 72 | 1011.1 |
| 20260509181501 | 85 | 167 | 3.0 | 9.0 | 0.00 | 0.03 | 0.00 | 71 | 1011.3 |
| 20260509181101 | 85 | 137 | 3.0 | 9.0 | 0.00 | 0.03 | 0.00 | 71 | 1011.3 |
| 20260509180600 | 85 | 178 | 2.0 | 5.0 | 0.00 | 0.03 | 0.00 | 72 | 1011.5 |
| 20260509180109 | 85 | 207 | 0.0 | 7.0 | 0.00 | 0.03 | 0.00 | 72 | 1011.7 |
| 20260509175602 | 85 | 174 | 2.0 | 7.0 | 0.00 | 0.03 | 0.00 | 71 | 1011.8 |